Location: Aultman
(40.9284°N, 81.4173°W)
Time: 16:00:22
(UTC+00:00)

Daily predictions for brighter satellites

Satellite Brightness Start Highest point End
(mag) Time Altitude Azimuth Time Altitude Azimuth Time Altitude Azimuth
BREEZE-M DEB (TANK) 3.3 12:01:09 10° WNW 12:07:33 36° SW 12:10:12 10° SSE
CZ-4B DEB 4.5 12:06:40 10° N 12:11:59 47° WNW 12:17:16 10° SW
Cosmos 2279 Rocket 4.1 12:08:23 10° SSW 12:14:32 61° W 12:20:45 10° N
Cosmos 1825 Rocket 4.0 12:11:27 10° NNW 12:15:41 43° W 12:19:54 10° SSW
Cosmos 1892 Rocket 3.5 22:54:20 10° S 22:58:40 84° E 23:03:01 10° N
Landsat 5 4.1 22:56:18 10° N 23:00:06 53° WNW 23:03:48 10° SSW
Cosmos 2263 Rocket 4.2 22:56:33 10° WSW 23:01:10 25° NW 23:05:47 10° N
Okean-O 4.1 22:59:25 10° ESE 23:02:11 17° ENE 23:04:58 10° NNE
X-37B 1.2 22:59:50 10° W 23:02:55 48° NNW 23:06:03 10° ENE
SJ 16-02 1.3 22:59:44 10° S 23:04:05 68° ESE 23:08:29 10° NNE
CZ-4B R/B 1.9 23:03:06 10° NNE 23:06:13 36° E 23:09:14 10° SSE
Cosmos 1818 3.8 23:01:53 10° SW 23:07:17 74° WNW 23:12:45 10° NNE
NOSS 2-1 (E) 3.8 23:05:39 10° S 23:08:42 30° ESE 23:11:41 10° NE
Cosmos 2279 Rocket 4.3 23:03:57 10° N 23:10:13 76° W 23:16:26 10° S
COSMOS 2455 3.7 23:05:54 10° SW 23:11:44 51° NW 23:17:37 10° NNE
Cosmos 1703 4.2 23:08:42 10° SSE 23:12:01 28° E 23:15:21 10° NNE
NOAA 11 4.3 23:06:45 10° SSE 23:12:14 86° WSW 23:17:47 10° NNW
FengYun 1-2 T 4.4 23:10:38 10° SSE 23:16:12 84° WSW 23:21:51 10° NNW
CZ-2C R/B 3.5 23:12:12 10° SE 23:17:14 44° ENE 23:22:33 10° N
Cosmos 1538 Rocket 4.3 23:12:28 10° NNW 23:17:38 74° WSW 23:22:46 10° S
CZ-2C R/B 4.3 23:15:55 10° ENE 23:18:44 14° E 23:21:35 10° ESE
Cosmos 44 3.3 23:14:48 10° SSW 23:19:27 65° ESE 23:24:27 10° NE
SKYMED 2 3.7 23:15:40 10° NNE 23:19:56 55° E 23:24:11 10° S
Cosmos 1689 Rocket 3.5 23:22:32 14° ENE 23:23:49 18° E 23:25:51 10° SE
Meteor 2-1 Rocket 4.1 23:23:56 10° N 23:29:28 69° E 23:34:56 10° SSE
BREEZE-M DEB (TANK) 3.6 23:26:52 10° WNW 23:29:40 33° SW 23:31:44 10° SSE
Cosmos 990 Rocket 3.9 23:31:14 10° S 23:36:23 68° ESE 23:41:33 10° NNE
COSMOS 2406 4.2 23:32:17 10° N 23:37:04 26° NE 23:41:00 13° ESE
Cosmos 489 Rocket 4.5 23:30:44 10° NNW 23:37:07 86° ENE 23:43:26 10° SSE
Cosmos 1833 Rocket 3.8 23:33:08 10° N 23:37:30 22° NE 23:40:04 17° E
Cosmos 2058 Rocket 3.9 23:33:22 10° NNW 23:37:48 56° W 23:42:12 10° S
Helios 1A Rocket 3.8 23:37:16 10° SE 23:40:49 28° ENE 23:44:23 10° N
EXPRESS MD2 4.2 23:33:34 10° WNW 23:41:33 75° SW 23:45:23 10° SE
Meteor 2-10 Rocket 4.4 23:37:29 10° NNW 23:42:45 54° W 23:47:46 10° S
Cosmos 1844 4.3 23:39:24 10° SW 23:44:59 59° WNW 23:50:40 10° NNE
NOSS 3-1 (C) 4.2 23:37:40 10° NNW 23:45:03 54° NE 23:53:31 10° SE
Cosmos 405 3.9 23:42:22 10° NNE 23:45:21 25° ENE 23:45:41 25° E
MOS 1 Rocket 3.0 23:41:17 10° NNE 23:45:35 82° ESE 23:49:54 10° S
Hubble Space Telescope 3.4 23:43:49 10° SW 23:45:45 13° S 23:47:41 10° SSE
Cosmos 1626 Rocket 3.6 23:43:36 10° S 23:47:58 84° W 23:52:26 10° N
Cosmos 2082 Rocket 3.7 23:45:14 10° N 23:48:45 16° NE 23:48:45 16° NE
CREW DRAGON DEMO-1 DEB 2.5 23:46:14 10° NW 23:49:07 88° NNE 23:50:37 25° SE
Cosmos 158 Rocket 4.2 23:45:22 10° NNW 23:50:45 78° WSW 23:56:08 10° SSE
Cosmos 1328 3.8 23:47:00 10° S 23:50:57 61° E 23:54:53 10° NNE
Cosmos 1092 Rocket 3.9 23:46:33 10° S 23:52:43 77° E 23:58:53 10° N
Cosmos 1844 Rocket 3.9 23:47:58 10° SW 23:53:17 41° WNW 23:58:37 10° N
